Regional Weather Roundup
Issued by NWS

Home | Current Version | Previous Version | Text Only | Print | Product List | Glossary On
Versions: 1 2 3 4 5 6 7 8 9 10 11 12 13 14 15 16 17 18 19 20 21 22 23 24 25 26 27 28 29 30 31 32 33 34 35 36 37 38 39 40 41 42 43 44 45 46 47 48 49 50
605
ASUS45 KPSR 270710
RWRAZ

ARIZONA HOURLY REGIONAL WEATHER ROUNDUP
NATIONAL WEATHER SERVICE PHOENIX AZ
1200 AM MST TUE SEP 27 2016

NOTE: FAIR INDICATES FEW OR NO CLOUDS BELOW 12,000 FEET WITH NO
SIGNIFICANT WEATHER AND/OR OBSTRUCTIONS TO VISIBILITY.

AZZ001>003-036-270800-
NORTHWEST ARIZONA

CITY           SKY/WX    TMP DP  RH WIND       PRES   REMARKS
BULLHEAD CITY  PTCLDY    84  45  24 SW7       29.96R
KINGMAN        PTCLDY    67  38  34 S5        30.12R
$$

AZZ004>008-015-016-018-270800-
NORTH CENTRAL ARIZONA

CITY           SKY/WX    TMP DP  RH WIND       PRES   REMARKS
GRAND CANYON   PTCLDY    46  37  71 NE7       30.34S
PRESCOTT       MOCLDY    58  45  62 SW3       30.22S
FLAGSTAFF      MOCLDY    53  32  44 E3        30.34S
PAYSON         CLOUDY    59  48  67 CALM      30.27S
PAGE           CLEAR     61  37  41 W3        30.21S
$$

AZZ009>014-017-270800-
NORTHEAST ARIZONA

CITY           SKY/WX    TMP DP  RH WIND       PRES   REMARKS
WINSLOW        PTCLDY    55  33  43 E5        30.25R
SAINT JOHNS    CLOUDY    58  34  40 E9        30.27F
WINDOW ROCK    CLEAR     44  26  49 CALM      30.37S
SHOW LOW       LGT RAIN  54  45  71 W3        30.31S
$$

AZZ023-270800-
GREATER PHOENIX AREA

CITY           SKY/WX    TMP DP  RH WIND       PRES   REMARKS
PHOENIX        CLOUDY    77  48  35 E13       30.00F
BUCKEYE        PTCLDY    75  46  35 E6        30.01F
LUKE AFB       MOCLDY    77  51  39 CALM      30.00F
DEER VALLEY    CLOUDY    77  49  37 E7        30.02F
SCOTTSDALE     CLOUDY    77  45  32 E8        30.04S
MESA-GATEWAY   MOCLDY    73  46  38 E7        30.03F
$$

AZZ027-028-270800-
SOUTHWEST MARICOPA COUNTY AND PINAL COUNTY

CITY           SKY/WX    TMP DP  RH WIND       PRES   REMARKS
CASA GRANDE    PTCLDY    73  45  35 NE16      30.03S
GILA BEND      FAIR      77  46  33 NE6       29.95F
$$

AZZ503-504-507>509-270800-
SOUTHEAST ARIZONA

CITY           SKY/WX    TMP DP  RH WIND       PRES   REMARKS
TUCSON         CLOUDY    70  48  45 SE24G32   30.08F
DAVIS-MONTHAN  CLOUDY    67  50  53 SE16G24   30.08F
NOGALES        PTCLDY    59  47  64 VRB7      30.12F
SIERRA VISTA   MOCLDY    55  47  75 SE16      30.21S
DOUGLAS        PTCLDY    56  46  69 E9        30.21R
SAFFORD        CLOUDY    62  48  60 SE8       30.21S
$$

AZZ020-021-025-026-031-270800-
SOUTHWEST ARIZONA

CITY           SKY/WX    TMP DP  RH WIND       PRES   REMARKS
YUMA           NOT AVBL
$$

CAZ031-033-041-043-047-048-061-270800-
SOUTHERN CALIFORNIA

CITY           SKY/WX    TMP DP  RH WIND       PRES   REMARKS
DOWNTOWN L.A.  CLEAR     75  53  46 CALM      29.87S
L.A. AIRPORT   PTCLDY    78  53  41 VRB3      29.87S
SAN DIEGO      CLOUDY    89  39  17 CALM      29.88S
BURBANK        CLEAR     79  35  20 CALM      29.90S
ONTARIO        PTCLDY    77  37  23 NE3       29.92S
RIVERSIDE      CLEAR     75  41  29 CALM      29.92S
PALM SPRINGS   CLEAR     81  53  37 W3        29.96R
EL CENTRO NAS  CLOUDY    83  49  30 CALM      29.90S
IMPERIAL       CLOUDY    87  52  29 E8        29.87F
BLYTHE         CLOUDY    85  49  28 NE3       29.92F
NEEDLES          N/A    N/A N/A N/A MISG      29.96R
$$

NVZ020-UTZ003-270800-
SOUTHERN NEVADA-UTAH

CITY           SKY/WX    TMP DP  RH WIND       PRES   REMARKS
LAS VEGAS      CLEAR     76  29  17 S5        30.03S
SALT LAKE CITY CLEAR     58  48  69 E5        30.24F
$$

NMZ009-TXZ055-270800-
NEW MEXICO-WEST TEXAS

CITY           SKY/WX    TMP DP  RH WIND       PRES   REMARKS
ALBUQUERQUE    CLOUDY    58  34  40 CALM      30.35R
EL PASO        CLOUDY    57  46  66 NE6       30.30F
$$


........................KEY........................
SKY/WX - SKY CONDITION/WEATHER
TMP    - TEMPERATURE IN FAHRENHEIT
DP     - DEW POINT IN FAHRENHEIT
RH     - RELATIVE HUMIDITY IN PERCENT
WIND   - DIRECTION AND SPEED IN MILES PER HOUR (MPH)
VRB    - VARIABLE WIND DIRECTION
PRES   - MEAN SEA LEVEL PRESSURE IN INCHES OF MERCURY
         F - FALLING PRESSURE   R - RISING PRESSURE
         S - STEADY PRESSURE
VSB    - VISIBILITY IN MILES
HX     - HEAT INDEX IN FAHRENHEIT
WCI    - WIND CHILL INDEX IN FAHRENHEIT
TC     - TEMPERATURE IN CELSIUS WHICH IS ALSO KNOWN AS
         TEMPERATURE IN CENTIGRADE
AFB    - AIR FORCE BASE
         LUKE AFB IS LUKE AIR FORCE BASE
         DAVIS-MONTHAN IS DAVIS-MONTHAN AIR FORCE BASE
NAS    - NAVAL AIR STATION
         EL CENTRO NAS IS EL CENTRO NAVAL AIR STATION
N/A    - NOT AVAILABLE





USA.gov is the U.S. government's official web portal to all federal, state and local government web resources and services.